Sulphur Springs, TX

7:07 AM CST on February 10, 2016 (GMT -0600)
Sulphur Springs Municipal

Weather History for KSLR - April, 2013

Change the Weather History Date:

Saturday, April 27, 2013

  Actual Average (KTYR) Record (KTYR)
Temperature  
Mean Temperature 64 °F 68 °F  
Max Temperature 71 °F 78 °F 92 °F (1987)
Min Temperature 55 °F 58 °F 41 °F (1967)
Degree Days  
Heating Degree Days 1 1  
Month to date heating degree days 94  
Since 1 July heating degree days 2259  
Cooling Degree Days 0 4  
Month to date cooling degree days 65  
Year to date cooling degree days 98  
Growing Degree Days 14 (Base 50)    
Moisture  
Dew Point 58 °F    
Average Humidity 73    
Maximum Humidity 88    
Minimum Humidity 53    
Precipitation  
Precipitation 0.00 in 0.12 in 2.67 in (1958)
Month to date precipitation 2.78  
Year to date precipitation 13.77  
Snow  
Snow 0.00 in - - ()
Month to date snowfall  
Since 1 July snowfall  
Snow Depth -    
Sea Level Pressure  
Sea Level Pressure 30.06 in    
Wind  
Wind Speed 11 mph (West)    
Max Wind Speed 15 mph    
Max Gust Speed 22 mph    
Visibility 10 miles    
Events      
T = Trace of Precipitation, MM = Missing Value Source: NWS Daily Summary

Daily Weather History Graph

Daily Weather History Graph

Search for Another Location

Airport or City:

Trip Planner

Search our weather history database for the weather conditions in past years. The results will help you decide how hot, cold, wet, or windy it might be!

Date:

Astronomy

Apr. 27, 2013 Rise Set
Actual Time 6:38 AM CDT 8:02 PM CDT
Civil Twilight 6:12 AM CDT 8:28 PM CDT
Nautical Twilight 5:41 AM CDT 8:59 PM CDT
Astronomical Twilight 5:08 AM CDT 9:32 PM CDT
Moon 10:26 PM CDT (4/27) 8:02 AM CDT (4/27)
Length of Visible Light 14h 15m
Length of Day
13h 23m
Waning Gibbous, 95% of the Moon is Illuminated
Apr 27
Waning Gibbous
May 2
Last Quarter
May 9
New
May 17
First Quarter
May 24
Full

Hourly Weather History & Observations

Time (CDT) Temp. Dew Point Humidity Pressure Visibility Wind Dir Wind Speed Gust Speed Precip Events Conditions
12:15 AM 71.6 °F 62.6 °F 73% 30.04 in 10.0 mi South 11.5 mph 17.3 mph N/A   Clear
12:35 AM 71.6 °F 62.6 °F 73% 30.03 in 10.0 mi South 13.8 mph 19.6 mph N/A   Clear
12:55 AM 71.6 °F 62.6 °F 73% 30.03 in 10.0 mi South 12.7 mph 19.6 mph N/A   Clear
1:15 AM 69.8 °F 62.6 °F 78% 30.03 in 10.0 mi South 13.8 mph 18.4 mph N/A   Clear
1:35 AM 69.8 °F 62.6 °F 78% 30.03 in 10.0 mi South 15.0 mph 21.9 mph N/A   Clear
1:55 AM 69.8 °F 62.6 °F 78% 30.03 in 10.0 mi South 9.2 mph - N/A   Clear
2:15 AM 69.8 °F 62.6 °F 78% 30.04 in 10.0 mi South 11.5 mph - N/A   Clear
2:35 AM 69.8 °F 62.6 °F 78% 30.04 in 10.0 mi South 11.5 mph - N/A   Scattered Clouds
2:55 AM 69.8 °F 62.6 °F 78% 30.04 in 10.0 mi South 10.4 mph - N/A   Mostly Cloudy
3:15 AM 69.8 °F 62.6 °F 78% 30.04 in 10.0 mi SSW 8.1 mph - N/A   Mostly Cloudy
3:35 AM 69.8 °F 62.6 °F 78% 30.06 in 10.0 mi SSW 9.2 mph - N/A   Mostly Cloudy
3:55 AM 69.8 °F 62.6 °F 78% 30.04 in 10.0 mi South 10.4 mph - N/A   Mostly Cloudy
4:15 AM 69.8 °F 62.6 °F 78% 30.04 in 10.0 mi South 9.2 mph - N/A   Mostly Cloudy
4:35 AM 69.8 °F 62.6 °F 78% 30.03 in 10.0 mi South 12.7 mph - N/A   Mostly Cloudy
4:55 AM 69.8 °F 62.6 °F 78% 30.03 in 10.0 mi SSW 12.7 mph 19.6 mph N/A   Mostly Cloudy
5:15 AM 69.8 °F 62.6 °F 78% 30.03 in 10.0 mi SSW 11.5 mph 18.4 mph N/A   Overcast
6:35 AM 69.8 °F 62.6 °F 78% 30.03 in 10.0 mi SSW 15.0 mph 18.4 mph N/A   Overcast
6:55 AM 69.8 °F 62.6 °F 78% 30.03 in 10.0 mi SSW 12.7 mph 17.3 mph N/A   Overcast
7:15 AM 69.8 °F 62.6 °F 78% 30.04 in 10.0 mi SSW 13.8 mph - N/A   Overcast
7:35 AM 69.8 °F 62.6 °F 78% 30.04 in 10.0 mi SSW 12.7 mph 21.9 mph N/A   Overcast
7:55 AM 69.8 °F 62.6 °F 78% 30.04 in 10.0 mi SSW 12.7 mph - N/A   Overcast
8:15 AM 69.8 °F 62.6 °F 78% 30.05 in 10.0 mi SSW 13.8 mph 18.4 mph N/A   Overcast
8:35 AM 69.8 °F 62.6 °F 78% 30.05 in 10.0 mi SSW 15.0 mph - N/A   Overcast
8:55 AM 69.8 °F 62.6 °F 78% 30.05 in 10.0 mi SSW 11.5 mph - N/A   Overcast
9:15 AM 69.8 °F 62.6 °F 78% 30.06 in 10.0 mi SW 13.8 mph - N/A   Mostly Cloudy
9:35 AM 69.8 °F 62.6 °F 78% 30.06 in 7.0 mi SW 11.5 mph - N/A   Mostly Cloudy
9:55 AM 69.8 °F 62.6 °F 78% 30.06 in 7.0 mi West 11.5 mph - N/A   Mostly Cloudy
10:15 AM 68.0 °F 60.8 °F 78% 30.07 in 10.0 mi West 10.4 mph - N/A   Overcast
10:35 AM 68.0 °F 60.8 °F 78% 30.08 in 10.0 mi West 13.8 mph - N/A   Overcast
10:55 AM 68.0 °F 60.8 °F 78% 30.08 in 10.0 mi West 12.7 mph - N/A   Overcast
11:15 AM 68.0 °F 59.0 °F 73% 30.09 in 10.0 mi WNW 11.5 mph - N/A   Overcast
11:35 AM 66.2 °F 60.8 °F 83% 30.10 in 10.0 mi NW 11.5 mph - N/A   Overcast
11:55 AM 66.2 °F 60.8 °F 83% 30.10 in 10.0 mi NW 10.4 mph - N/A   Overcast
12:15 PM 66.2 °F 59.0 °F 78% 30.11 in 10.0 mi WNW 9.2 mph - N/A   Overcast
12:35 PM 66.2 °F 59.0 °F 78% 30.11 in 10.0 mi WNW 9.2 mph - N/A   Overcast
12:55 PM 66.2 °F 59.0 °F 78% 30.11 in 10.0 mi West 9.2 mph - N/A   Overcast
1:15 PM 68.0 °F 59.0 °F 73% 30.11 in 10.0 mi WNW 10.4 mph - N/A   Overcast
1:35 PM 68.0 °F 59.0 °F 73% 30.11 in 10.0 mi WNW 10.4 mph - N/A   Mostly Cloudy
1:55 PM 68.0 °F 57.2 °F 68% 30.10 in 10.0 mi WNW 11.5 mph - N/A   Mostly Cloudy
2:15 PM 68.0 °F 57.2 °F 68% 30.10 in 10.0 mi NW 11.5 mph - N/A   Mostly Cloudy
2:35 PM 68.0 °F 55.4 °F 64% 30.10 in 10.0 mi NW 6.9 mph - N/A   Mostly Cloudy
2:55 PM 69.8 °F 57.2 °F 64% 30.09 in 10.0 mi NNW 10.4 mph - N/A   Mostly Cloudy
3:15 PM 68.0 °F 55.4 °F 64% 30.08 in 10.0 mi NNW 9.2 mph - N/A   Mostly Cloudy
3:35 PM 69.8 °F 55.4 °F 60% 30.08 in 10.0 mi NW 10.4 mph - N/A   Mostly Cloudy
3:55 PM 69.8 °F 53.6 °F 56% 30.07 in 10.0 mi NW 9.2 mph - N/A   Scattered Clouds
4:15 PM 69.8 °F 55.4 °F 60% 30.06 in 10.0 mi NNW 8.1 mph - N/A   Clear
4:35 PM 69.8 °F 55.4 °F 60% 30.06 in 10.0 mi WNW 8.1 mph - N/A   Clear
4:55 PM 69.8 °F 53.6 °F 56% 30.05 in 10.0 mi WNW 9.2 mph - N/A   Clear
5:15 PM 69.8 °F 55.4 °F 60% 30.04 in 10.0 mi NNW 6.9 mph - N/A   Clear
5:35 PM 69.8 °F 55.4 °F 60% 30.04 in 10.0 mi NNW 8.1 mph - N/A   Clear
5:55 PM 69.8 °F 55.4 °F 60% 30.05 in 10.0 mi NW 4.6 mph - N/A   Clear
6:15 PM 71.6 °F 53.6 °F 53% 30.05 in 10.0 mi NW 6.9 mph - N/A   Clear
6:35 PM 69.8 °F 55.4 °F 60% 30.04 in 10.0 mi NW 8.1 mph - N/A   Clear
6:55 PM 69.8 °F 55.4 °F 60% 30.04 in 10.0 mi NNW 6.9 mph - N/A   Clear
7:15 PM 69.8 °F 55.4 °F 60% 30.04 in 10.0 mi North 8.1 mph - N/A   Clear
7:35 PM 68.0 °F 55.4 °F 64% 30.03 in 10.0 mi North 10.4 mph - N/A   Clear
7:55 PM 64.4 °F 53.6 °F 68% 30.03 in 10.0 mi NNE 9.2 mph - N/A   Clear
8:15 PM 64.4 °F 53.6 °F 68% 30.03 in 10.0 mi NNE 4.6 mph - N/A   Clear
8:35 PM 62.6 °F 53.6 °F 72% 30.04 in 10.0 mi NNE 4.6 mph - N/A   Clear
8:55 PM 62.6 °F 53.6 °F 72% 30.04 in 10.0 mi NNE 4.6 mph - N/A   Clear
9:15 PM 60.8 °F 53.6 °F 77% 30.04 in 10.0 mi NNE 4.6 mph - N/A   Clear
9:35 PM 60.8 °F 53.6 °F 77% 30.05 in 10.0 mi NE 4.6 mph - N/A   Clear
9:55 PM 60.8 °F 51.8 °F 72% 30.06 in 10.0 mi ENE 3.5 mph - N/A   Clear
10:15 PM 59.0 °F 51.8 °F 77% 30.06 in 10.0 mi East 3.5 mph - N/A   Clear
10:35 PM 59.0 °F 51.8 °F 77% 30.06 in 10.0 mi ENE 4.6 mph - N/A   Clear
10:55 PM 59.0 °F 51.8 °F 77% 30.06 in 10.0 mi NE 3.5 mph - N/A   Clear
11:15 PM 57.2 °F 51.8 °F 82% 30.06 in 10.0 mi NE 3.5 mph - N/A   Clear
11:35 PM 57.2 °F 51.8 °F 82% 30.06 in 10.0 mi ENE 4.6 mph - N/A   Clear
11:55 PM 55.4 °F 51.8 °F 88% 30.06 in 10.0 mi ENE 3.5 mph - N/A   Clear